When you browse on this site, cookies collect data to enhance your experience and personalize the content and advertising you see.
Visit our Privacy Policy to learn more. By continuing to use the site, you agree to this use of cookies and data.
  • In Austria
  • List of Countries
  • For 7 days
  • Water Temperature
  • Weather Map
  • News
  • Weather Widgets
  • user-avatar
    Login

    Hourly Weather Dinagepoor

    Today, 27 February, Thursday

    Time Temperature Precipitation Wind Pressure Humidity
    00:00 +20°C° 0 mm 2 mps 759 mmHg 64%
    01:00 +19°C° 0 mm 2 mps 759 mmHg 63%
    02:00 +19°C° 0 mm 2 mps 758 mmHg 63%
    03:00 +19°C° 0 mm 2 mps 758 mmHg 62%
    04:00 +18°C° 0 mm 2 mps 758 mmHg 63%
    05:00 +19°C° 0 mm 1 mps 758 mmHg 65%
    06:00 +17°C° 0 mm 2 mps 758 mmHg 71%
    07:00 +19°C° 0 mm 2 mps 759 mmHg 70%
    08:00 +20°C° 0 mm 2 mps 759 mmHg 68%
    09:00 +21°C° 0 mm 2 mps 760 mmHg 66%
    10:00 +24°C° 0.1 mm 2 mps 760 mmHg 59%
    11:00 +26°C° 0.1 mm 1 mps 759 mmHg 52%
    12:00 +27°C° 0 mm 1 mps 760 mmHg 49%
    13:00 +27°C° 0 mm 1 mps 759 mmHg 44%
    14:00 +26°C° 0 mm 0 mps 758 mmHg 40%
    15:00 +27°C° 0 mm 0 mps 757 mmHg 35%
    16:00 +28°C° 0 mm 1 mps 757 mmHg 36%
    17:00 +27°C° 0 mm 1 mps 757 mmHg 38%
    18:00 +26°C° 0 mm 1 mps 757 mmHg 40%
    19:00 +26°C° 0 mm 2 mps 757 mmHg 42%
    20:00 +25°C° 0 mm 2 mps 758 mmHg 45%
    21:00 +24°C° 0 mm 2 mps 758 mmHg 48%
    22:00 +23°C° 0 mm 2 mps 758 mmHg 48%
    23:00 +23°C° 0 mm 1 mps 758 mmHg 49%

    Tomorrow, 28 February, Friday

    Time Temperature Precipitation Wind Pressure Humidity
    00:00 +23°C° 0 mm 1 mps 758 mmHg 50%
    01:00 +22°C° 0 mm 1 mps 757 mmHg 51%
    02:00 +22°C° 0 mm 1 mps 757 mmHg 53%
    03:00 +21°C° 0 mm 1 mps 756 mmHg 55%
    04:00 +21°C° 0 mm 1 mps 757 mmHg 57%
    05:00 +20°C° 0 mm 2 mps 757 mmHg 59%
    06:00 +19°C° 0 mm 2 mps 757 mmHg 61%
    07:00 +21°C° 0 mm 2 mps 758 mmHg 57%
    08:00 +22°C° 0 mm 3 mps 758 mmHg 52%
    09:00 +25°C° 0 mm 3 mps 759 mmHg 48%
    10:00 +26°C° 0 mm 3 mps 759 mmHg 44%
    11:00 +28°C° 0 mm 2 mps 758 mmHg 39%
    12:00 +29°C° 0 mm 2 mps 758 mmHg 34%
    13:00 +30°C° 0 mm 2 mps 757 mmHg 32%
    14:00 +30°C° 0 mm 1 mps 756 mmHg 29%
    15:00 +31°C° 0 mm 1 mps 756 mmHg 27%
    16:00 +30°C° 0 mm 1 mps 755 mmHg 29%
    17:00 +29°C° 0 mm 1 mps 755 mmHg 31%
    18:00 +28°C° 0 mm 2 mps 755 mmHg 34%
    19:00 +27°C° 0 mm 2 mps 756 mmHg 35%
    20:00 +26°C° 0 mm 2 mps 756 mmHg 37%
    21:00 +25°C° 0 mm 2 mps 757 mmHg 39%
    22:00 +25°C° 0 mm 2 mps 757 mmHg 40%
    23:00 +24°C° 0 mm 2 mps 756 mmHg 42%

    Day after tomorrow, 29 February, Saturday

    Time Temperature Precipitation Wind Pressure Humidity
    00:00 +24°C° 0 mm 2 mps 756 mmHg 43%
    01:00 +23°C° 0 mm 2 mps 756 mmHg 45%
    02:00 +23°C° 0 mm 2 mps 755 mmHg 47%
    03:00 +21°C° 0 mm 2 mps 755 mmHg 49%
    04:00 +21°C° 0 mm 2 mps 755 mmHg 50%
    05:00 +21°C° 0 mm 2 mps 755 mmHg 51%
    06:00 +21°C° 0 mm 1 mps 755 mmHg 52%
    07:00 +23°C° 0 mm 2 mps 756 mmHg 48%
    08:00 +25°C° 0 mm 2 mps 756 mmHg 44%
    09:00 +26°C° 0 mm 2 mps 757 mmHg 40%
    10:00 +28°C° 0 mm 2 mps 757 mmHg 36%
    11:00 +29°C° 0 mm 1 mps 756 mmHg 32%
    12:00 +31°C° 0 mm 1 mps 756 mmHg 28%
    13:00 +31°C° 0 mm 1 mps 755 mmHg 27%
    14:00 +32°C° 0 mm 1 mps 755 mmHg 25%
    15:00 +32°C° 0 mm 1 mps 754 mmHg 24%
    16:00 +31°C° 0 mm 2 mps 754 mmHg 26%
    17:00 +30°C° 0 mm 2 mps 754 mmHg 29%
    18:00 +29°C° 0 mm 2 mps 754 mmHg 31%
    19:00 +28°C° 0 mm 2 mps 754 mmHg 33%
    20:00 +27°C° 0 mm 2 mps 754 mmHg 34%
    21:00 +27°C° 0 mm 1 mps 755 mmHg 36%
    22:00 +26°C° 0 mm 1 mps 755 mmHg 36%
    23:00 +26°C° 0 mm 1 mps 755 mmHg 37%

    1 March, Sunday

    Time Temperature Precipitation Wind Pressure Humidity
    00:00 +25°C° 0 mm 1 mps 755 mmHg 38%
    01:00 +25°C° 0 mm 1 mps 755 mmHg 39%
    02:00 +24°C° 0 mm 1 mps 755 mmHg 40%
    03:00 +24°C° 0 mm 1 mps 754 mmHg 42%
    04:00 +23°C° 0 mm 1 mps 754 mmHg 43%
    05:00 +23°C° 0 mm 1 mps 754 mmHg 45%
    06:00 +22°C° 0 mm 1 mps 755 mmHg 47%
    07:00 +24°C° 0 mm 1 mps 755 mmHg 43%
    08:00 +26°C° 0 mm 1 mps 756 mmHg 40%
    09:00 +27°C° 0 mm 1 mps 757 mmHg 36%
    10:00 +27°C° 0 mm 0 mps 756 mmHg 33%
    11:00 +29°C° 0 mm 0 mps 756 mmHg 30%
    12:00 +30°C° 0 mm 0 mps 756 mmHg 26%
    13:00 +33°C° 0 mm 1 mps 755 mmHg 25%
    14:00 +34°C° 0 mm 2 mps 754 mmHg 24%
    15:00 +34°C° 0 mm 2 mps 753 mmHg 24%
    16:00 +32°C° 0 mm 2 mps 753 mmHg 26%
    17:00 +31°C° 0 mm 2 mps 753 mmHg 29%
    18:00 +30°C° 0 mm 2 mps 753 mmHg 31%
    19:00 +29°C° 0 mm 1 mps 753 mmHg 32%
    20:00 +29°C° 0 mm 1 mps 754 mmHg 33%
    21:00 +28°C° 0 mm 1 mps 754 mmHg 34%
    22:00 +27°C° 0 mm 1 mps 754 mmHg 35%
    23:00 +27°C° 0 mm 1 mps 754 mmHg 36%

    2 March, Monday

    Time Temperature Precipitation Wind Pressure Humidity
    00:00 +26°C° 0 mm 1 mps 754 mmHg 38%
    01:00 +26°C° 0 mm 1 mps 754 mmHg 39%
    02:00 +25°C° 0 mm 1 mps 754 mmHg 41%
    03:00 +25°C° 0 mm 1 mps 753 mmHg 43%
    04:00 +24°C° 0 mm 1 mps 754 mmHg 44%
    05:00 +23°C° 0 mm 1 mps 754 mmHg 46%
    06:00 +23°C° 0 mm 1 mps 754 mmHg 47%
    07:00 +25°C° 0 mm 1 mps 755 mmHg 43%
    08:00 +26°C° 0 mm 1 mps 756 mmHg 40%
    09:00 +28°C° 0 mm 1 mps 756 mmHg 36%
    10:00 +30°C° 0 mm 1 mps 756 mmHg 33%
    11:00 +31°C° 0 mm 1 mps 756 mmHg 29%
    12:00 +33°C° 0 mm 1 mps 756 mmHg 26%
    13:00 +34°C° 0 mm 2 mps 755 mmHg 25%
    14:00 +35°C° 0 mm 2 mps 754 mmHg 24%
    15:00 +35°C° 0 mm 3 mps 753 mmHg 23%
    16:00 +34°C° 0 mm 3 mps 753 mmHg 26%
    17:00 +32°C° 0 mm 2 mps 753 mmHg 28%
    18:00 +31°C° 0 mm 2 mps 752 mmHg 31%
    19:00 +30°C° 0 mm 2 mps 753 mmHg 32%
    20:00 +29°C° 0 mm 1 mps 753 mmHg 33%
    21:00 +29°C° 0 mm 1 mps 754 mmHg 34%
    22:00 +28°C° 0 mm 2 mps 754 mmHg 37%
    23:00 +27°C° 0 mm 2 mps 754 mmHg 40%

    3 March, Tuesday

    Time Temperature Precipitation Wind Pressure Humidity
    00:00 +26°C° 0 mm 3 mps 754 mmHg 42%
    01:00 +25°C° 0.1 mm 3 mps 754 mmHg 46%
    02:00 +24°C° 0.1 mm 2 mps 754 mmHg 50%
    03:00 +23°C° 0.1 mm 2 mps 754 mmHg 53%
    04:00 +23°C° 0.1 mm 2 mps 754 mmHg 54%
    05:00 +23°C° 0.1 mm 2 mps 754 mmHg 55%
    06:00 +23°C° 0.1 mm 2 mps 754 mmHg 55%
    07:00 +24°C° 0 mm 2 mps 754 mmHg 51%
    08:00 +26°C° 0 mm 2 mps 755 mmHg 46%
    09:00 +27°C° 0 mm 2 mps 756 mmHg 42%
    10:00 +29°C° 0 mm 2 mps 755 mmHg 38%
    11:00 +30°C° 0 mm 3 mps 755 mmHg 34%
    12:00 +33°C° 0 mm 3 mps 755 mmHg 31%
    13:00 +34°C° 0 mm 2 mps 754 mmHg 29%
    14:00 +35°C° 0 mm 2 mps 753 mmHg 27%
    15:00 +34°C° 0 mm 1 mps 752 mmHg 25%
    16:00 +34°C° 0 mm 2 mps 752 mmHg 27%
    17:00 +32°C° 0 mm 2 mps 752 mmHg 29%
    18:00 +31°C° 0 mm 3 mps 751 mmHg 30%
    19:00 +30°C° 0 mm 3 mps 752 mmHg 32%
    20:00 +29°C° 0 mm 2 mps 753 mmHg 34%
    21:00 +29°C° 0 mm 2 mps 753 mmHg 36%
    22:00 +27°C° 0 mm 3 mps 753 mmHg 41%
    23:00 +26°C° 0 mm 3 mps 754 mmHg 46%
    Show more